Precipitable_Water
0.53 0.53 0.53 0.52 0.52 0.52 0.51 0.52 0.52 0.52 0.52 0.51 0.49 0.48 0.49 0.48 0.46 0.46 0.43 0.43 0.43 0.44 0.44 0.41 0.43 0.42 0.42 0.44 0.41 0.38 0.38 0.32 0.35 0.33 0.29 0.24 0.35 0.42 0.37 0.43 0.50 0.50 0.75 0.83 1.10 1.13 1.04 1.02 1.05 1.30 1.36 1.46 1.44 1.37 1.58 1.57 1.65 1.52 1.30 1.19 1.10 1.15 1.12 1.39 1.32 1.35 1.45 1.39 1.50 1.58 1.66 1.59 1.39 1.64 1.68 1.78 1.57 1.51 1.50 1.53 1.53 1.57 1.55 1.50 1.41 1.50 1.46 1.45
0.54 0.53 0.54 0.53 0.53 0.52 0.52 0.51 0.51 0.51 0.50 0.51 0.51 0.49 0.50 0.49 0.49 0.47 0.46 0.44 0.44 0.43 0.42 0.43 0.41 0.41 0.43 0.43 0.42 0.40 0.35 0.33 0.28 0.30 0.25 0.35 0.29 0.32 0.35 0.36 0.43 0.46 0.72 0.76 0.95 0.94 0.88 0.86 0.95 1.17 1.28 1.26 1.54 1.37 1.60 1.44 1.59 1.33 1.31 1.20 1.10 1.20 1.21 1.57 1.50 1.47 1.41 1.40 1.51 1.59 1.67 1.60 1.47 1.62 1.59 1.50 1.47 1.38 1.35 1.37 1.44 1.42 1.44 1.45 1.41 1.42 1.40 1.38
0.55 0.54 0.55 0.55 0.54 0.53 0.52 0.51 0.50 0.50 0.50 0.50 0.51 0.51 0.50 0.50 0.50 0.49 0.47 0.46 0.45 0.44 0.43 0.41 0.41 0.41 0.40 0.45 0.41 0.39 0.35 0.28 0.33 0.24 0.31 0.41 0.32 0.29 0.31 0.36 0.40 0.45 0.57 0.68 0.93 0.84 0.81 0.80 0.91 1.04 1.20 1.26 1.43 1.34 1.43 1.44 1.43 1.43 1.33 1.15 1.19 1.32 1.27 1.34 1.51 1.52 1.56 1.56 1.49 1.53 1.68 1.61 1.59 1.69 1.76 1.48 1.38 1.41 1.28 1.28 1.34 1.27 1.25 1.27 1.34 1.35 1.34 1.32
0.56 0.55 0.55 0.55 0.55 0.55 0.54 0.52 0.51 0.51 0.49 0.50 0.49 0.50 0.51 0.50 0.50 0.50 0.49 0.48 0.46 0.45 0.44 0.42 0.40 0.39 0.42 0.41 0.43 0.42 0.37 0.30 0.21 0.40 0.55 0.47 0.39 0.32 0.29 0.34 0.40 0.44 0.53 0.87 0.93 0.81 0.83 0.82 0.93 0.99 1.14 1.20 1.39 1.41 1.29 1.42 1.38 1.45 1.31 1.15 1.18 1.33 1.21 1.23 1.37 1.52 1.59 1.62 1.55 1.53 1.65 1.55 1.61 1.68 1.58 1.52 1.37 1.34 1.39 1.44 1.34 1.25 1.23 1.27 1.29 1.30 1.32 1.27
0.55 0.56 0.55 0.56 0.56 0.56 0.55 0.54 0.53 0.52 0.51 0.50 0.50 0.50 0.50 0.51 0.51 0.51 0.50 0.49 0.48 0.46 0.45 0.42 0.39 0.41 0.40 0.44 0.40 0.39 0.37 0.16 0.46 0.72 0.61 0.47 0.43 0.33 0.30 0.34 0.43 0.42 0.56 0.89 0.82 0.75 0.75 0.75 0.86 0.89 1.09 1.04 1.32 1.30 1.30 1.41 1.44 1.35 1.27 1.32 1.29 1.28 1.14 1.22 1.30 1.40 1.64 1.64 1.52 1.61 1.54 1.48 1.81 1.72 1.56 1.52 1.29 1.22 1.38 1.47 1.49 1.40 1.35 1.27 1.23 1.24 1.27 1.24
0.55 0.55 0.55 0.56 0.56 0.56 0.56 0.55 0.55 0.54 0.53 0.52 0.51 0.51 0.51 0.51 0.52 0.52 0.52 0.51 0.49 0.48 0.45 0.43 0.41 0.38 0.43 0.44 0.39 0.40 0.27 0.10 0.44 0.76 0.71 0.55 0.42 0.34 0.29 0.38 0.46 0.46 0.59 0.82 0.69 0.66 0.64 0.66 0.77 0.75 0.88 1.00 1.12 1.11 1.25 1.34 1.39 1.09 1.23 1.25 1.24 1.21 1.15 1.21 1.15 1.26 1.57 1.50 1.51 1.53 1.62 1.70 1.61 1.52 1.61 1.57 1.39 1.45 1.62 1.58 1.48 1.48 1.43 1.38 1.32 1.24 1.22 1.21
0.57 0.57 0.56 0.56 0.56 0.56 0.56 0.56 0.56 0.55 0.55 0.53 0.53 0.52 0.51 0.52 0.52 0.53 0.54 0.53 0.52 0.49 0.46 0.43 0.41 0.41 0.42 0.43 0.40 0.28 0.23 0.36 0.57 0.66 0.64 0.51 0.45 0.32 0.31 0.43 0.49 0.52 0.60 0.71 0.63 0.56 0.53 0.59 0.68 0.72 0.84 0.86 1.06 1.13 1.26 1.23 1.35 1.24 1.24 1.14 1.19 1.17 1.09 1.15 1.08 1.21 1.41 1.51 1.45 1.61 1.72 1.58 1.52 1.41 1.71 1.53 1.56 1.61 1.68 1.63 1.48 1.44 1.42 1.35 1.26 1.23 1.19 1.15
0.61 0.60 0.59 0.58 0.56 0.56 0.56 0.56 0.57 0.57 0.55 0.54 0.53 0.53 0.52 0.52 0.53 0.54 0.55 0.55 0.53 0.50 0.47 0.43 0.41 0.41 0.46 0.39 0.28 0.29 0.17 0.14 0.62 0.63 0.50 0.52 0.41 0.31 0.33 0.51 0.49 0.56 0.56 0.59 0.60 0.51 0.50 0.53 0.57 0.75 0.76 0.71 0.89 1.05 1.22 1.17 1.20 1.11 1.15 1.16 1.13 1.12 1.11 1.06 1.07 1.10 1.28 1.59 1.56 1.53 1.49 1.50 1.59 1.51 1.62 1.50 1.62 1.67 1.68 1.58 1.47 1.41 1.36 1.31 1.25 1.21 1.18 1.17
0.62 0.61 0.60 0.59 0.58 0.56 0.56 0.56 0.57 0.57 0.57 0.55 0.54 0.52 0.52 0.53 0.54 0.55 0.56 0.55 0.54 0.50 0.47 0.45 0.40 0.42 0.48 0.35 0.25 0.22 0.24 0.61 0.61 0.50 0.51 0.43 0.35 0.30 0.40 0.51 0.54 0.58 0.52 0.55 0.57 0.52 0.48 0.47 0.52 0.66 0.59 0.60 0.79 0.89 1.14 1.04 0.98 1.10 1.16 1.21 1.14 1.00 0.97 1.13 1.12 1.10 1.32 1.53 1.59 1.43 1.40 1.61 1.63 1.69 1.53 1.54 1.64 1.67 1.67 1.49 1.42 1.38 1.31 1.26 1.23 1.20 1.17 1.17
0.63 0.63 0.61 0.60 0.59 0.58 0.57 0.57 0.57 0.56 0.56 0.57 0.55 0.53 0.52 0.53 0.55 0.56 0.55 0.56 0.53 0.50 0.47 0.44 0.44 0.44 0.37 0.30 0.31 0.21 0.50 0.76 0.49 0.44 0.39 0.41 0.30 0.31 0.44 0.54 0.57 0.59 0.46 0.42 0.47 0.49 0.46 0.47 0.47 0.55 0.55 0.57 0.69 0.78 1.04 1.03 1.04 1.19 1.14 1.13 1.02 0.93 0.99 1.13 1.05 1.15 1.34 1.48 1.44 1.38 1.46 1.47 1.56 1.56 1.28 1.67 1.65 1.65 1.58 1.44 1.42 1.36 1.28 1.25 1.23 1.21 1.18 1.18
0.62 0.62 0.62 0.62 0.61 0.59 0.58 0.57 0.57 0.56 0.55 0.55 0.55 0.54 0.53 0.55 0.55 0.56 0.55 0.53 0.54 0.49 0.45 0.44 0.44 0.45 0.36 0.33 0.24 0.35 0.63 0.71 0.50 0.44 0.45 0.40 0.30 0.27 0.41 0.57 0.62 0.59 0.40 0.34 0.39 0.47 0.49 0.50 0.47 0.50 0.54 0.59 0.67 0.67 0.86 1.02 1.13 1.12 1.08 1.01 0.94 0.91 1.06 1.08 1.12 1.19 1.37 1.32 1.43 1.43 1.38 1.47 1.47 1.51 1.31 1.57 1.63 1.64 1.52 1.44 1.40 1.37 1.32 1.25 1.25 1.21 1.20 1.16
0.61 0.61 0.61 0.61 0.61 0.60 0.60 0.58 0.57 0.55 0.55 0.53 0.53 0.53 0.54 0.55 0.55 0.54 0.54 0.54 0.53 0.49 0.44 0.43 0.46 0.46 0.41 0.37 0.28 0.40 0.78 0.76 0.53 0.53 0.49 0.45 0.31 0.29 0.47 0.64 0.66 0.58 0.38 0.33 0.35 0.41 0.46 0.49 0.47 0.48 0.45 0.57 0.58 0.60 0.69 0.99 1.04 1.03 0.98 0.82 0.85 0.86 1.05 1.08 1.10 1.22 1.34 1.29 1.44 1.46 1.31 1.25 1.33 1.22 1.53 1.64 1.66 1.59 1.52 1.45 1.42 1.38 1.34 1.29 1.25 1.22 1.19 1.17
0.60 0.59 0.59 0.59 0.59 0.59 0.59 0.59 0.58 0.57 0.55 0.53 0.51 0.50 0.53 0.55 0.54 0.54 0.54 0.54 0.51 0.46 0.42 0.44 0.48 0.49 0.44 0.27 0.28 0.55 0.71 0.66 0.58 0.61 0.60 0.46 0.41 0.42 0.54 0.63 0.64 0.60 0.46 0.40 0.34 0.37 0.44 0.48 0.51 0.46 0.50 0.52 0.55 0.51 0.79 0.90 0.98 0.97 0.91 0.83 0.78 0.75 0.90 1.03 1.19 1.25 1.28 1.31 1.43 1.45 0.96 1.17 1.20 1.34 1.52 1.64 1.63 1.58 1.52 1.46 1.50 1.45 1.36 1.31 1.27 1.22 1.20 1.22
0.58 0.58 0.58 0.58 0.58 0.58 0.57 0.57 0.57 0.56 0.56 0.55 0.52 0.50 0.51 0.53 0.55 0.56 0.54 0.52 0.49 0.43 0.43 0.46 0.51 0.47 0.46 0.54 0.45 0.43 0.64 0.65 0.59 0.59 0.62 0.65 0.48 0.50 0.48 0.58 0.65 0.61 0.54 0.46 0.41 0.40 0.41 0.45 0.46 0.48 0.51 0.49 0.54 0.78 0.65 0.73 0.85 0.76 0.85 0.83 0.72 0.66 0.78 1.00 1.03 1.19 1.26 1.35 1.40 1.38 1.04 1.15 1.29 1.31 1.52 1.65 1.65 1.52 1.44 1.46 1.42 1.43 1.37 1.32 1.28 1.24 1.20 1.21
0.58 0.58 0.57 0.57 0.57 0.57 0.56 0.56 0.55 0.54 0.56 0.56 0.54 0.51 0.51 0.50 0.54 0.56 0.55 0.49 0.48 0.44 0.42 0.52 0.48 0.46 0.36 0.40 0.50 0.49 0.65 0.61 0.50 0.58 0.66 0.58 0.56 0.43 0.47 0.52 0.55 0.58 0.53 0.45 0.39 0.39 0.40 0.39 0.39 0.38 0.40 0.53 0.58 0.60 0.57 0.57 0.62 0.70 0.68 0.63 0.71 0.63 0.82 0.94 1.12 1.09 1.12 1.25 1.47 1.25 1.04 1.08 1.26 1.36 1.63 1.67 1.61 1.62 1.45 1.46 1.42 1.41 1.40 1.34 1.31 1.27 1.20 1.22
0.58 0.57 0.56 0.57 0.56 0.56 0.56 0.55 0.53 0.53 0.54 0.56 0.54 0.54 0.53 0.53 0.52 0.54 0.55 0.52 0.48 0.47 0.49 0.38 0.44 0.46 0.39 0.55 0.52 0.49 0.54 0.44 0.49 0.59 0.59 0.62 0.52 0.46 0.47 0.44 0.48 0.51 0.51 0.47 0.48 0.43 0.37 0.34 0.31 0.34 0.42 0.48 0.46 0.54 0.53 0.51 0.52 0.60 0.60 0.65 0.64 0.64 0.78 0.92 0.98 1.11 1.29 1.27 1.32 1.24 0.98 1.07 1.13 1.44 1.57 1.62 1.58 1.57 1.49 1.49 1.44 1.43 1.41 1.38 1.36 1.30 1.26 1.22
0.57 0.57 0.57 0.56 0.55 0.55 0.54 0.54 0.52 0.52 0.53 0.53 0.54 0.54 0.55 0.56 0.55 0.50 0.50 0.48 0.49 0.55 0.51 0.56 0.55 0.40 0.40 0.62 0.66 0.39 0.42 0.54 0.57 0.55 0.54 0.62 0.55 0.53 0.46 0.44 0.41 0.43 0.45 0.48 0.45 0.38 0.32 0.26 0.28 0.31 0.37 0.39 0.41 0.48 0.45 0.41 0.42 0.46 0.56 0.61 0.66 0.61 0.68 0.72 0.99 1.07 1.20 1.14 1.03 1.19 1.02 1.09 1.17 1.39 1.53 1.60 1.63 1.52 1.51 1.50 1.42 1.43 1.44 1.44 1.40 1.33 1.27 1.24
0.57 0.57 0.57 0.57 0.56 0.55 0.54 0.52 0.52 0.51 0.52 0.51 0.52 0.52 0.51 0.54 0.57 0.53 0.49 0.54 0.58 0.55 0.54 0.53 0.43 0.35 0.30 0.47 0.39 0.39 0.52 0.63 0.51 0.54 0.55 0.61 0.65 0.56 0.47 0.41 0.42 0.41 0.42 0.41 0.43 0.28 0.29 0.22 0.25 0.22 0.26 0.33 0.39 0.36 0.35 0.32 0.38 0.42 0.48 0.53 0.58 0.63 0.63 0.66 0.81 0.98 1.09 1.10 1.00 1.06 1.04 1.12 1.32 1.47 1.45 1.51 1.68 1.56 1.44 1.49 1.45 1.41 1.47 1.46 1.41 1.36 1.30 1.26
0.59 0.58 0.58 0.58 0.56 0.55 0.53 0.52 0.50 0.51 0.51 0.50 0.52 0.55 0.53 0.56 0.55 0.58 0.56 0.57 0.43 0.33 0.35 0.27 0.25 0.20 0.32 0.37 0.44 0.54 0.58 0.63 0.61 0.53 0.52 0.55 0.66 0.55 0.52 0.50 0.44 0.38 0.33 0.33 0.36 0.29 0.28 0.23 0.23 0.22 0.21 0.26 0.35 0.33 0.34 0.40 0.43 0.46 0.50 0.53 0.58 0.56 0.55 0.60 0.77 1.02 0.98 0.98 1.02 1.05 1.02 1.09 1.21 1.40 1.49 1.58 1.69 1.53 1.49 1.52 1.42 1.41 1.43 1.47 1.43 1.41 1.34 1.31
0.61 0.61 0.59 0.58 0.57 0.56 0.54 0.52 0.50 0.49 0.51 0.47 0.50 0.48 0.51 0.48 0.40 0.43 0.51 0.44 0.30 0.39 0.44 0.40 0.26 0.41 0.42 0.44 0.46 0.55 0.59 0.53 0.52 0.51 0.57 0.65 0.56 0.53 0.48 0.49 0.41 0.39 0.35 0.28 0.32 0.29 0.29 0.19 0.21 0.17 0.20 0.23 0.34 0.37 0.37 0.44 0.51 0.51 0.50 0.53 0.57 0.59 0.55 0.63 0.78 1.05 1.00 0.95 0.91 1.23 1.16 1.10 1.24 1.33 1.39 1.52 1.63 1.55 1.49 1.43 1.43 1.47 1.41 1.40 1.41 1.45 1.40 1.36
0.62 0.61 0.60 0.59 0.58 0.56 0.55 0.53 0.50 0.48 0.50 0.47 0.47 0.42 0.46 0.33 0.26 0.33 0.40 0.39 0.33 0.33 0.33 0.37 0.31 0.35 0.45 0.50 0.48 0.40 0.36 0.40 0.48 0.52 0.55 0.64 0.62 0.48 0.45 0.42 0.40 0.31 0.33 0.34 0.31 0.32 0.29 0.18 0.22 0.20 0.19 0.21 0.27 0.42 0.45 0.50 0.50 0.51 0.54 0.50 0.54 0.56 0.52 0.62 0.67 0.79 0.96 0.85 0.91 0.98 1.10 1.16 1.26 1.25 1.44 1.48 1.37 1.38 1.33 1.46 1.41 1.37 1.46 1.51 1.49 1.48 1.43 1.42
0.62 0.61 0.61 0.60 0.59 0.56 0.55 0.52 0.49 0.49 0.48 0.46 0.41 0.36 0.43 0.38 0.38 0.44 0.38 0.25 0.33 0.29 0.29 0.31 0.33 0.32 0.44 0.49 0.48 0.44 0.37 0.34 0.40 0.52 0.61 0.51 0.57 0.40 0.42 0.39 0.35 0.30 0.34 0.35 0.33 0.28 0.24 0.19 0.22 0.23 0.22 0.27 0.28 0.36 0.45 0.50 0.52 0.52 0.55 0.53 0.51 0.55 0.55 0.58 0.56 0.62 0.79 0.69 0.85 0.89 0.83 1.00 1.04 1.09 1.36 1.34 1.33 1.25 1.45 1.48 1.45 1.39 1.40 1.44 1.42 1.42 1.48 1.48
0.63 0.62 0.62 0.61 0.60 0.58 0.53 0.52 0.49 0.48 0.47 0.38 0.34 0.32 0.40 0.44 0.42 0.44 0.30 0.25 0.25 0.31 0.25 0.23 0.23 0.27 0.34 0.43 0.45 0.40 0.28 0.28 0.30 0.47 0.54 0.50 0.49 0.49 0.46 0.35 0.33 0.34 0.34 0.35 0.28 0.25 0.21 0.22 0.23 0.25 0.25 0.34 0.38 0.36 0.38 0.51 0.52 0.51 0.54 0.55 0.50 0.57 0.48 0.44 0.48 0.48 0.62 0.62 0.62 0.71 0.70 0.78 1.01 1.04 1.14 1.22 1.09 1.20 1.18 1.37 1.47 1.49 1.47 1.42 1.42 1.47 1.48 1.48
0.64 0.64 0.64 0.63 0.62 0.58 0.54 0.49 0.50 0.45 0.39 0.42 0.42 0.46 0.48 0.45 0.44 0.43 0.31 0.21 0.32 0.30 0.23 0.23 0.22 0.23 0.30 0.33 0.39 0.34 0.25 0.27 0.31 0.43 0.56 0.48 0.41 0.52 0.49 0.38 0.35 0.34 0.32 0.32 0.32 0.27 0.24 0.24 0.24 0.26 0.26 0.29 0.36 0.38 0.43 0.45 0.42 0.50 0.52 0.49 0.48 0.50 0.49 0.47 0.45 0.45 0.51 0.55 0.63 0.68 0.65 0.65 0.77 0.88 0.89 1.02 1.10 1.08 1.13 1.14 1.30 1.45 1.55 1.53 1.57 1.55 1.58 1.50
0.65 0.65 0.66 0.65 0.62 0.60 0.55 0.53 0.41 0.49 0.47 0.40 0.42 0.45 0.46 0.46 0.46 0.45 0.29 0.26 0.19 0.25 0.26 0.25 0.25 0.26 0.38 0.40 0.38 0.30 0.29 0.28 0.33 0.52 0.51 0.46 0.47 0.43 0.44 0.45 0.43 0.34 0.36 0.34 0.33 0.30 0.27 0.28 0.26 0.25 0.28 0.33 0.46 0.46 0.41 0.39 0.37 0.42 0.48 0.49 0.50 0.53 0.51 0.50 0.50 0.46 0.43 0.42 0.51 0.57 0.51 0.49 0.60 0.66 0.75 0.90 1.03 1.02 1.15 1.10 1.12 1.31 1.42 1.39 1.47 1.51 1.58 1.57
0.65 0.67 0.65 0.64 0.64 0.59 0.61 0.56 0.44 0.44 0.41 0.43 0.47 0.46 0.49 0.49 0.53 0.44 0.32 0.21 0.24 0.23 0.19 0.16 0.19 0.25 0.35 0.30 0.32 0.33 0.32 0.25 0.29 0.49 0.48 0.41 0.59 0.41 0.38 0.38 0.42 0.38 0.38 0.38 0.32 0.32 0.32 0.33 0.29 0.27 0.39 0.44 0.50 0.46 0.40 0.35 0.30 0.30 0.33 0.43 0.51 0.56 0.53 0.52 0.46 0.38 0.33 0.31 0.43 0.49 0.47 0.44 0.56 0.59 0.64 0.75 0.93 0.96 1.09 1.08 1.17 1.27 1.31 1.32 1.46 1.53 1.53 1.57
0.68 0.68 0.67 0.65 0.64 0.62 0.54 0.45 0.45 0.46 0.42 0.46 0.44 0.50 0.51 0.51 0.59 0.48 0.24 0.18 0.21 0.27 0.16 0.24 0.13 0.30 0.27 0.33 0.28 0.29 0.16 0.21 0.32 0.43 0.41 0.49 0.51 0.44 0.31 0.36 0.38 0.48 0.46 0.42 0.32 0.28 0.36 0.36 0.36 0.44 0.45 0.43 0.41 0.36 0.38 0.30 0.26 0.25 0.35 0.36 0.47 0.57 0.54 0.50 0.46 0.39 0.38 0.42 0.48 0.50 0.48 0.47 0.47 0.60 0.80 0.80 0.92 1.00 1.04 1.06 1.21 1.26 1.35 1.32 1.40 1.54 1.58 1.64
0.69 0.68 0.65 0.66 0.65 0.61 0.50 0.48 0.48 0.48 0.46 0.55 0.52 0.48 0.55 0.53 0.49 0.42 0.26 0.12 0.17 0.28 0.23 0.20 0.21 0.37 0.30 0.31 0.29 0.19 0.25 0.27 0.22 0.30 0.39 0.45 0.45 0.36 0.33 0.35 0.34 0.38 0.44 0.40 0.25 0.34 0.34 0.41 0.42 0.39 0.42 0.39 0.35 0.36 0.43 0.35 0.27 0.32 0.41 0.44 0.39 0.49 0.55 0.53 0.48 0.42 0.39 0.39 0.36 0.40 0.44 0.42 0.49 0.74 0.77 0.86 0.93 0.95 1.02 0.97 1.05 1.25 1.26 1.32 1.37 1.49 1.59 1.59
0.69 0.67 0.66 0.66 0.66 0.63 0.61 0.53 0.52 0.51 0.50 0.53 0.52 0.52 0.52 0.56 0.42 0.30 0.24 0.19 0.27 0.25 0.32 0.19 0.27 0.30 0.25 0.28 0.23 0.23 0.25 0.26 0.23 0.31 0.36 0.39 0.39 0.36 0.28 0.34 0.35 0.35 0.46 0.43 0.30 0.33 0.36 0.48 0.51 0.43 0.35 0.31 0.37 0.39 0.47 0.41 0.26 0.41 0.51 0.54 0.48 0.46 0.50 0.52 0.47 0.43 0.41 0.38 0.34 0.34 0.40 0.36 0.57 0.64 0.71 0.84 0.90 0.83 0.92 1.06 1.09 1.15 1.26 1.41 1.49 1.54 1.58 1.66
0.69 0.66 0.66 0.66 0.66 0.67 0.65 0.57 0.48 0.50 0.52 0.53 0.57 0.55 0.52 0.42 0.35 0.19 0.17 0.18 0.30 0.22 0.22 0.26 0.18 0.24 0.24 0.23 0.21 0.21 0.22 0.24 0.30 0.31 0.32 0.29 0.30 0.34 0.35 0.39 0.36 0.33 0.41 0.46 0.39 0.38 0.42 0.47 0.52 0.42 0.35 0.36 0.40 0.45 0.50 0.48 0.36 0.46 0.49 0.47 0.47 0.45 0.43 0.44 0.44 0.42 0.38 0.31 0.32 0.39 0.39 0.36 0.45 0.68 0.77 0.80 0.86 0.95 0.94 1.00 1.07 1.10 1.18 1.33 1.42 1.41 1.53 1.70
0.68 0.65 0.63 0.65 0.58 0.60 0.57 0.56 0.54 0.55 0.53 0.55 0.56 0.56 0.49 0.37 0.28 0.23 0.15 0.22 0.26 0.24 0.23 0.19 0.21 0.25 0.22 0.21 0.19 0.21 0.23 0.27 0.27 0.27 0.25 0.30 0.30 0.30 0.31 0.31 0.41 0.35 0.37 0.40 0.33 0.42 0.43 0.47 0.45 0.46 0.51 0.47 0.48 0.49 0.53 0.54 0.46 0.46 0.44 0.43 0.40 0.37 0.37 0.35 0.33 0.39 0.31 0.27 0.33 0.41 0.40 0.36 0.35 0.59 0.81 0.95 0.98 0.92 0.98 0.98 0.98 0.99 1.01 1.13 1.23 1.31 1.51 1.60
0.66 0.64 0.62 0.57 0.60 0.59 0.48 0.52 0.64 0.65 0.57 0.59 0.55 0.45 0.40 0.28 0.28 0.23 0.24 0.33 0.19 0.19 0.19 0.19 0.24 0.23 0.23 0.23 0.22 0.20 0.22 0.24 0.27 0.26 0.26 0.25 0.27 0.26 0.27 0.27 0.31 0.31 0.31 0.32 0.27 0.35 0.36 0.39 0.47 0.48 0.51 0.45 0.44 0.46 0.51 0.49 0.45 0.45 0.45 0.40 0.30 0.26 0.24 0.20 0.26 0.24 0.28 0.28 0.33 0.40 0.40 0.33 0.32 0.61 0.84 0.88 0.93 0.93 0.93 0.91 0.98 0.95 0.95 1.02 1.17 1.33 1.44 1.52
0.65 0.64 0.63 0.58 0.57 0.55 0.58 0.62 0.63 0.60 0.60 0.53 0.48 0.52 0.41 0.33 0.21 0.27 0.22 0.24 0.19 0.24 0.24 0.22 0.22 0.22 0.22 0.21 0.22 0.24 0.25 0.22 0.27 0.28 0.29 0.29 0.28 0.27 0.30 0.32 0.33 0.31 0.28 0.30 0.27 0.31 0.33 0.39 0.37 0.40 0.43 0.44 0.45 0.39 0.44 0.43 0.40 0.42 0.39 0.34 0.26 0.21 0.17 0.16 0.21 0.25 0.27 0.31 0.38 0.38 0.40 0.31 0.53 0.66 0.86 0.87 0.89 0.96 0.95 0.94 0.93 0.94 0.97 1.00 1.11 1.18 1.34 1.49
0.64 0.63 0.57 0.64 0.59 0.57 0.57 0.59 0.64 0.67 0.58 0.56 0.50 0.43 0.37 0.29 0.26 0.31 0.24 0.26 0.25 0.26 0.25 0.23 0.22 0.24 0.22 0.18 0.21 0.23 0.22 0.23 0.25 0.26 0.30 0.29 0.28 0.28 0.31 0.36 0.35 0.33 0.34 0.35 0.24 0.30 0.24 0.23 0.31 0.31 0.25 0.42 0.44 0.42 0.42 0.42 0.37 0.37 0.40 0.34 0.26 0.26 0.22 0.18 0.21 0.19 0.22 0.26 0.31 0.35 0.31 0.27 0.40 0.59 0.79 0.96 0.99 0.93 0.92 0.96 0.94 0.95 1.03 1.05 1.25 1.22 1.48 1.56
0.63 0.59 0.61 0.66 0.68 0.65 0.62 0.64 0.67 0.68 0.58 0.52 0.44 0.40 0.29 0.26 0.28 0.25 0.27 0.25 0.23 0.24 0.22 0.24 0.23 0.22 0.20 0.23 0.27 0.27 0.26 0.24 0.28 0.28 0.27 0.26 0.26 0.30 0.29 0.30 0.37 0.37 0.35 0.29 0.30 0.29 0.26 0.24 0.28 0.29 0.29 0.36 0.35 0.40 0.43 0.33 0.35 0.37 0.38 0.39 0.30 0.29 0.35 0.22 0.22 0.22 0.25 0.24 0.22 0.24 0.26 0.32 0.47 0.79 0.93 0.96 0.96 0.97 0.94 0.90 0.95 0.91 1.00 1.10 1.22 1.27 1.33 1.44
0.58 0.64 0.68 0.65 0.50 0.52 0.57 0.61 0.63 0.62 0.55 0.51 0.47 0.31 0.27 0.29 0.26 0.26 0.27 0.27 0.23 0.22 0.22 0.22 0.22 0.21 0.21 0.21 0.27 0.24 0.29 0.26 0.26 0.27 0.26 0.28 0.31 0.30 0.34 0.35 0.36 0.38 0.34 0.31 0.34 0.26 0.27 0.24 0.28 0.27 0.26 0.27 0.27 0.29 0.31 0.33 0.25 0.35 0.36 0.31 0.32 0.37 0.35 0.28 0.27 0.27 0.28 0.23 0.20 0.27 0.38 0.52 0.67 0.84 0.91 0.92 0.87 0.90 0.94 0.90 0.90 0.92 0.96 1.05 1.11 1.24 1.37 1.48
0.67 0.62 0.62 0.49 0.49 0.56 0.57 0.60 0.61 0.56 0.52 0.48 0.41 0.28 0.27 0.26 0.25 0.27 0.25 0.24 0.25 0.25 0.20 0.18 0.19 0.18 0.19 0.22 0.23 0.25 0.26 0.26 0.27 0.25 0.25 0.31 0.29 0.34 0.34 0.34 0.35 0.37 0.37 0.35 0.31 0.34 0.25 0.24 0.27 0.25 0.23 0.26 0.29 0.29 0.30 0.31 0.34 0.34 0.29 0.33 0.39 0.40 0.38 0.34 0.24 0.26 0.24 0.19 0.20 0.27 0.30 0.37 0.40 0.49 0.87 0.85 0.83 0.82 0.86 0.90 0.86 0.92 0.96 0.97 1.06 1.20 1.34 1.41
0.53 0.54 0.48 0.45 0.48 0.52 0.62 0.63 0.59 0.55 0.51 0.46 0.32 0.25 0.28 0.27 0.28 0.28 0.27 0.27 0.24 0.25 0.25 0.23 0.21 0.23 0.21 0.20 0.19 0.22 0.24 0.21 0.24 0.24 0.25 0.28 0.25 0.33 0.31 0.32 0.35 0.34 0.38 0.39 0.35 0.33 0.35 0.26 0.27 0.28 0.27 0.27 0.27 0.26 0.25 0.28 0.34 0.33 0.34 0.41 0.32 0.26 0.28 0.35 0.34 0.25 0.22 0.19 0.20 0.26 0.33 0.38 0.35 0.47 0.71 0.73 0.77 0.75 0.80 0.88 0.87 0.82 0.92 0.95 1.01 1.13 1.24 1.36
0.55 0.52 0.51 0.44 0.49 0.50 0.53 0.65 0.55 0.54 0.50 0.42 0.28 0.28 0.27 0.28 0.31 0.28 0.30 0.30 0.28 0.27 0.27 0.28 0.27 0.24 0.24 0.22 0.24 0.23 0.21 0.20 0.25 0.22 0.24 0.30 0.25 0.30 0.30 0.32 0.33 0.36 0.36 0.38 0.36 0.38 0.35 0.27 0.27 0.30 0.27 0.27 0.25 0.23 0.19 0.22 0.28 0.35 0.35 0.34 0.36 0.34 0.32 0.31 0.30 0.36 0.27 0.24 0.22 0.25 0.28 0.34 0.44 0.57 0.70 0.74 0.79 0.76 0.79 0.82 0.84 0.86 0.88 0.96 0.95 1.01 1.14 1.25
0.55 0.49 0.43 0.47 0.46 0.48 0.54 0.55 0.49 0.46 0.46 0.36 0.32 0.31 0.32 0.30 0.30 0.31 0.32 0.32 0.29 0.30 0.30 0.30 0.30 0.23 0.29 0.25 0.26 0.22 0.21 0.21 0.26 0.24 0.27 0.32 0.29 0.33 0.30 0.32 0.29 0.34 0.35 0.37 0.38 0.39 0.33 0.33 0.23 0.28 0.30 0.26 0.20 0.21 0.21 0.24 0.19 0.24 0.29 0.30 0.33 0.32 0.37 0.35 0.35 0.32 0.31 0.27 0.23 0.24 0.24 0.40 0.59 0.71 0.72 0.72 0.77 0.78 0.75 0.80 0.86 0.88 0.92 0.96 1.02 1.07 1.11 1.20
0.41 0.39 0.40 0.46 0.42 0.45 0.48 0.47 0.45 0.38 0.31 0.31 0.36 0.32 0.34 0.33 0.33 0.32 0.33 0.34 0.32 0.32 0.35 0.35 0.30 0.26 0.29 0.30 0.25 0.26 0.25 0.24 0.29 0.31 0.31 0.31 0.29 0.26 0.30 0.31 0.33 0.29 0.33 0.35 0.33 0.35 0.32 0.30 0.28 0.27 0.25 0.20 0.24 0.27 0.28 0.29 0.29 0.26 0.27 0.27 0.28 0.28 0.29 0.25 0.25 0.30 0.30 0.29 0.24 0.24 0.29 0.55 0.65 0.74 0.74 0.76 0.82 0.79 0.79 0.78 0.84 0.90 0.91 0.97 1.04 1.09 1.13 1.17
0.44 0.38 0.39 0.44 0.39 0.43 0.42 0.39 0.33 0.37 0.37 0.33 0.32 0.35 0.34 0.37 0.34 0.33 0.35 0.34 0.34 0.32 0.35 0.35 0.37 0.31 0.28 0.29 0.30 0.29 0.27 0.27 0.30 0.30 0.30 0.27 0.30 0.29 0.30 0.35 0.34 0.35 0.33 0.32 0.31 0.38 0.36 0.39 0.30 0.26 0.25 0.24 0.29 0.29 0.30 0.32 0.32 0.30 0.29 0.26 0.29 0.32 0.30 0.28 0.25 0.28 0.28 0.28 0.30 0.29 0.34 0.52 0.74 0.75 0.76 0.78 0.78 0.81 0.84 0.83 0.85 0.89 0.92 0.97 1.04 1.11 1.15 1.20
0.36 0.30 0.33 0.36 0.39 0.40 0.40 0.33 0.28 0.32 0.30 0.32 0.37 0.37 0.39 0.37 0.36 0.34 0.34 0.34 0.33 0.33 0.33 0.33 0.34 0.33 0.35 0.35 0.31 0.29 0.30 0.31 0.30 0.27 0.31 0.29 0.30 0.29 0.33 0.35 0.36 0.36 0.36 0.30 0.33 0.33 0.36 0.32 0.31 0.32 0.33 0.31 0.30 0.31 0.30 0.32 0.31 0.29 0.28 0.31 0.28 0.28 0.28 0.27 0.29 0.34 0.29 0.26 0.27 0.33 0.45 0.53 0.72 0.80 0.80 0.84 0.85 0.79 0.82 0.87 0.84 0.88 0.91 0.95 1.00 1.06 1.12 1.15
0.36 0.34 0.36 0.37 0.40 0.44 0.40 0.31 0.29 0.29 0.29 0.32 0.33 0.33 0.38 0.38 0.37 0.35 0.34 0.35 0.35 0.33 0.34 0.32 0.32 0.37 0.34 0.36 0.35 0.32 0.32 0.28 0.31 0.31 0.29 0.30 0.28 0.32 0.33 0.35 0.38 0.36 0.37 0.35 0.38 0.35 0.28 0.32 0.34 0.29 0.26 0.27 0.27 0.27 0.27 0.29 0.28 0.27 0.26 0.29 0.33 0.34 0.34 0.35 0.37 0.40 0.34 0.34 0.27 0.36 0.34 0.50 0.71 0.84 0.83 0.83 0.81 0.77 0.77 0.83 0.88 0.84 0.88 0.90 0.96 1.02 1.09 1.16
0.39 0.42 0.35 0.33 0.36 0.38 0.34 0.31 0.33 0.27 0.28 0.29 0.29 0.28 0.31 0.34 0.37 0.38 0.36 0.35 0.38 0.37 0.34 0.33 0.35 0.34 0.34 0.35 0.34 0.35 0.34 0.38 0.32 0.35 0.33 0.31 0.28 0.32 0.32 0.34 0.37 0.34 0.33 0.35 0.36 0.39 0.36 0.36 0.34 0.30 0.25 0.21 0.19 0.18 0.19 0.21 0.22 0.27 0.30 0.30 0.30 0.30 0.31 0.31 0.29 0.32 0.30 0.39 0.40 0.34 0.43 0.62 0.71 0.82 0.80 0.81 0.80 0.77 0.77 0.80 0.86 0.89 0.89 0.90 0.91 0.97 1.03 1.10
0.35 0.39 0.33 0.33 0.32 0.31 0.28 0.30 0.33 0.29 0.25 0.27 0.25 0.25 0.26 0.27 0.33 0.38 0.38 0.36 0.39 0.37 0.36 0.35 0.36 0.37 0.36 0.37 0.35 0.34 0.33 0.35 0.35 0.31 0.31 0.29 0.28 0.30 0.32 0.32 0.32 0.31 0.32 0.33 0.34 0.36 0.36 0.33 0.39 0.43 0.39 0.35 0.38 0.36 0.34 0.32 0.27 0.24 0.25 0.26 0.26 0.28 0.29 0.30 0.32 0.30 0.27 0.32 0.36 0.51 0.52 0.60 0.65 0.70 0.75 0.76 0.80 0.76 0.72 0.76 0.78 0.81 0.85 0.90 0.93 0.94 0.97 1.02
0.35 0.28 0.32 0.34 0.32 0.29 0.25 0.30 0.28 0.31 0.33 0.30 0.30 0.26 0.27 0.25 0.28 0.32 0.38 0.34 0.37 0.38 0.36 0.37 0.34 0.33 0.34 0.37 0.37 0.37 0.38 0.36 0.37 0.34 0.33 0.32 0.32 0.30 0.32 0.33 0.31 0.30 0.31 0.33 0.31 0.35 0.31 0.28 0.29 0.32 0.38 0.37 0.33 0.32 0.33 0.32 0.29 0.28 0.25 0.24 0.25 0.27 0.29 0.29 0.27 0.27 0.43 0.37 0.32 0.55 0.59 0.51 0.59 0.69 0.71 0.76 0.80 0.77 0.74 0.75 0.77 0.79 0.82 0.83 0.87 0.91 0.91 0.96
0.36 0.21 0.31 0.30 0.33 0.26 0.34 0.22 0.29 0.22 0.23 0.27 0.23 0.28 0.26 0.26 0.27 0.28 0.31 0.35 0.37 0.37 0.36 0.35 0.38 0.37 0.37 0.37 0.37 0.37 0.37 0.37 0.38 0.36 0.35 0.34 0.31 0.31 0.31 0.32 0.30 0.30 0.32 0.30 0.30 0.33 0.34 0.29 0.32 0.27 0.30 0.34 0.35 0.33 0.32 0.31 0.31 0.29 0.26 0.24 0.24 0.26 0.28 0.29 0.33 0.36 0.37 0.34 0.36 0.56 0.60 0.56 0.61 0.69 0.73 0.79 0.82 0.80 0.76 0.75 0.77 0.78 0.82 0.84 0.83 0.84 0.86 0.90
0.27 0.24 0.24 0.26 0.31 0.23 0.25 0.22 0.27 0.26 0.26 0.27 0.25 0.27 0.23 0.25 0.24 0.29 0.30 0.29 0.33 0.33 0.37 0.34 0.34 0.36 0.36 0.36 0.39 0.38 0.39 0.33 0.34 0.38 0.38 0.36 0.37 0.33 0.33 0.31 0.32 0.32 0.32 0.31 0.30 0.30 0.27 0.29 0.31 0.28 0.27 0.27 0.30 0.31 0.31 0.29 0.28 0.27 0.26 0.26 0.26 0.26 0.28 0.30 0.30 0.33 0.37 0.41 0.50 0.55 0.62 0.64 0.66 0.69 0.74 0.78 0.86 0.84 0.80 0.82 0.82 0.80 0.78 0.79 0.80 0.81 0.84 0.88
0.40 0.45 0.28 0.29 0.27 0.27 0.26 0.29 0.29 0.29 0.23 0.24 0.28 0.23 0.25 0.24 0.23 0.25 0.28 0.31 0.27 0.27 0.33 0.30 0.30 0.33 0.36 0.38 0.42 0.39 0.39 0.43 0.42 0.37 0.38 0.36 0.32 0.38 0.39 0.39 0.36 0.35 0.33 0.32 0.31 0.31 0.28 0.32 0.30 0.27 0.24 0.24 0.25 0.25 0.25 0.25 0.26 0.24 0.25 0.25 0.25 0.25 0.26 0.28 0.29 0.34 0.37 0.39 0.49 0.55 0.55 0.62 0.74 0.76 0.75 0.80 0.82 0.83 0.82 0.80 0.80 0.82 0.81 0.79 0.77 0.78 0.81 0.85
0.36 0.42 0.40 0.40 0.29 0.19 0.30 0.31 0.34 0.29 0.28 0.29 0.27 0.21 0.28 0.25 0.26 0.27 0.26 0.31 0.31 0.29 0.30 0.28 0.28 0.29 0.33 0.35 0.35 0.35 0.37 0.39 0.41 0.40 0.39 0.39 0.37 0.39 0.40 0.38 0.34 0.36 0.33 0.32 0.31 0.29 0.25 0.32 0.29 0.25 0.22 0.23 0.24 0.21 0.21 0.21 0.21 0.21 0.22 0.22 0.23 0.24 0.24 0.26 0.26 0.32 0.34 0.36 0.46 0.50 0.52 0.61 0.70 0.76 0.74 0.75 0.78 0.79 0.79 0.78 0.78 0.80 0.82 0.82 0.78 0.77 0.78 0.80
0.47 0.36 0.43 0.39 0.26 0.18 0.28 0.23 0.30 0.36 0.31 0.27 0.30 0.27 0.29 0.26 0.26 0.29 0.24 0.25 0.28 0.30 0.31 0.31 0.31 0.30 0.29 0.31 0.31 0.33 0.36 0.37 0.37 0.38 0.37 0.37 0.38 0.36 0.37 0.37 0.37 0.40 0.37 0.33 0.28 0.30 0.30 0.32 0.24 0.23 0.19 0.22 0.24 0.21 0.20 0.20 0.18 0.16 0.16 0.19 0.22 0.24 0.26 0.27 0.32 0.33 0.38 0.45 0.41 0.42 0.47 0.66 0.67 0.73 0.66 0.67 0.71 0.74 0.79 0.76 0.77 0.78 0.80 0.80 0.78 0.76 0.78 0.79
Wind_Speed
13 12 12 12 12 12 12 12 12 11 12 12 12 12 12 12 12 12 12 12 13 13 14 14 14 13 13 12 12 12 12 13 14 15 15 14 14 14 15 16 17 18 18 18 17 17 16 15 14 13 12 10 9 8 8 7 6 5 3 1 1 2 3 3 5 6 8 10 10 10 10 11 12 11 12 12 11 12 11 10 10 10 11 14 16 18 18 17
13 13 13 13 13 12 12 12 12 12 12 12 12 12 12 12 12 12 12 13 13 14 14 14 14 14 14 13 13 13 13 14 15 16 17 16 14 15 15 16 18 19 19 18 18 18 17 16 15 14 12 10 10 8 8 7 7 6 3 1 2 2 4 5 6 6 7 10 10 10 10 10 12 12 11 11 12 12 11 10 10 11 14 16 18 19 18 17
14 14 14 14 13 13 13 13 13 13 13 13 13 13 13 13 13 13 13 13 13 14 14 14 14 15 14 14 14 14 14 14 16 17 16 16 16 16 16 17 19 20 20 19 18 18 17 16 15 14 13 11 10 10 9 8 7 6 4 2 2 2 2 5 6 6 7 10 11 10 9 10 11 11 10 11 12 12 11 11 11 13 15 17 17 18 18 17
14 14 14 14 14 14 14 14 13 13 13 13 14 14 14 14 14 14 14 14 14 14 14 14 15 15 15 15 14 14 15 15 15 14 13 15 17 17 17 18 19 20 20 18 18 18 17 16 16 15 14 12 11 11 11 9 8 6 4 3 3 2 1 3 5 6 7 10 11 11 10 10 11 11 10 11 11 10 10 10 11 13 15 16 17 18 18 17
14 14 14 15 15 15 15 14 14 14 14 14 14 14 14 15 15 15 14 14 14 14 15 15 15 15 15 15 15 15 15 14 13 13 13 15 16 18 18 18 20 21 21 19 18 18 17 17 17 16 15 13 13 12 12 11 9 7 6 6 4 3 2 2 4 6 8 10 11 11 11 10 11 11 11 11 11 10 10 10 12 13 14 15 16 17 17 17
15 14 14 15 15 15 15 15 15 15 15 15 15 15 15 15 15 15 15 15 15 15 15 15 15 15 15 15 15 16 16 14 12 13 14 15 16 18 19 19 20 21 21 20 19 19 18 17 17 17 15 14 13 13 13 13 12 8 7 7 5 4 3 3 3 5 7 9 10 9 10 10 10 11 11 11 10 10 10 11 13 14 14 15 15 16 17 17
15 15 15 15 15 15 15 15 15 15 15 15 15 15 16 16 16 16 16 15 15 15 15 15 15 15 15 15 15 16 18 17 14 14 14 15 16 18 19 20 20 21 21 21 20 19 18 18 18 16 15 14 14 14 13 13 13 9 7 7 6 4 4 4 4 5 6 7 7 8 11 11 9 10 11 10 9 11 11 11 14 15 15 15 15 15 16 16
15 15 15 15 15 15 15 15 15 15 15 15 16 16 16 16 16 16 16 16 16 16 15 15 15 15 15 15 16 17 18 17 15 14 15 16 17 18 19 20 21 21 22 22 21 20 19 18 18 16 15 14 14 15 13 13 14 12 9 7 7 6 5 5 5 6 6 7 8 10 11 11 9 10 10 10 10 12 13 14 15 15 15 15 15 15 16 15
16 16 16 16 16 16 16 16 16 15 16 16 16 16 16 16 16 16 16 16 16 17 16 16 15 15 15 15 16 16 16 15 15 15 15 17 18 19 20 20 21 21 21 22 21 21 20 18 18 16 14 13 13 15 15 14 12 13 12 9 8 7 6 6 6 7 7 7 9 11 11 11 11 11 10 12 12 13 15 15 15 15 15 15 15 15 15 15
16 16 16 16 16 16 16 16 16 16 16 16 16 16 16 16 16 16 17 17 17 17 16 16 16 16 16 16 17 16 14 14 15 16 16 18 19 20 21 21 21 21 21 22 22 22 20 18 18 16 14 13 13 14 16 14 11 12 12 10 10 9 7 6 7 8 8 8 10 11 11 13 13 11 10 12 13 14 16 16 15 15 15 15 15 15 15 15
16 16 17 17 17 17 17 17 16 16 16 17 17 17 17 16 16 17 17 17 17 17 17 17 16 17 17 17 18 15 14 15 15 16 17 18 20 21 22 21 21 21 21 22 23 23 21 19 18 16 14 13 13 14 16 16 12 11 12 11 11 11 8 8 8 9 8 8 9 10 11 13 12 10 10 12 14 15 16 16 15 15 14 14 15 15 14 14
17 17 17 17 17 17 17 17 17 17 17 17 17 17 17 17 17 17 17 17 17 17 17 17 17 17 17 18 19 16 14 16 15 16 17 18 20 22 22 22 22 21 21 21 22 23 22 20 18 18 15 12 13 13 15 16 14 12 13 12 12 12 10 9 9 9 9 9 9 9 11 12 11 10 11 13 14 15 16 16 15 15 14 14 15 14 14 14
17 17 17 17 17 17 17 17 17 17 17 17 17 17 17 17 17 17 17 16 17 17 17 18 17 17 17 18 18 16 15 16 16 17 18 18 20 21 22 22 22 22 21 21 21 22 22 20 20 21 17 14 13 12 13 15 15 14 14 13 11 12 11 9 10 9 8 8 9 9 10 11 11 10 12 14 14 15 16 16 15 14 14 15 15 14 14 14
18 18 18 18 18 18 18 17 17 17 17 17 17 17 16 16 16 16 16 16 16 17 17 18 18 18 19 17 16 17 17 16 17 18 18 19 19 20 22 23 23 22 21 21 21 21 22 21 21 21 19 18 14 11 14 16 15 15 15 14 13 12 12 11 11 10 8 8 10 10 8 10 11 10 13 16 16 16 15 16 16 15 15 15 15 15 14 14
18 18 18 18 18 18 18 17 17 17 17 17 17 17 16 16 15 14 15 16 16 16 17 17 18 18 19 19 16 17 18 18 19 19 19 19 19 20 21 22 22 22 21 21 20 21 22 22 22 21 19 20 16 12 15 16 15 16 15 14 14 13 11 12 13 11 9 8 9 9 8 8 10 11 14 16 17 16 15 15 16 15 15 15 15 15 14 14
19 19 19 19 19 18 18 17 17 17 17 17 16 16 16 15 14 14 15 15 16 16 16 17 18 19 19 17 17 18 19 20 20 19 19 20 19 20 21 22 22 22 22 21 19 20 22 22 22 21 20 20 18 15 16 16 15 16 16 14 14 14 12 12 13 12 10 9 9 9 7 8 10 12 15 16 16 16 15 15 16 16 15 16 15 15 15 15
19 19 19 19 19 18 18 17 17 17 17 16 16 15 15 14 14 14 15 15 16 16 17 17 18 20 19 17 18 20 20 20 20 20 20 20 20 20 21 21 22 22 22 21 20 20 22 22 22 21 21 20 19 18 17 17 16 16 16 15 14 15 13 11 12 13 12 11 10 9 7 7 9 13 15 16 15 15 16 16 15 15 15 15 15 15 15 15
20 19 19 19 19 19 18 17 17 17 17 16 16 15 14 14 14 14 15 16 16 17 18 19 18 19 19 20 20 21 21 20 21 21 21 21 20 20 21 21 21 22 23 22 21 21 21 22 21 21 22 21 21 21 19 18 16 16 17 16 15 16 16 14 12 13 14 13 11 10 8 7 8 12 15 15 16 16 16 16 16 15 15 15 16 16 16 15
20 20 19 19 19 19 18 18 17 17 17 16 15 15 15 15 15 16 16 16 17 17 16 18 20 17 16 19 20 19 20 20 21 21 22 21 20 21 21 21 21 23 23 22 22 23 22 21 22 22 23 23 24 24 22 19 17 16 17 17 16 15 15 14 12 13 15 14 12 12 10 8 8 12 15 15 17 17 16 16 15 15 15 15 15 16 16 16
21 20 20 19 19 18 18 18 17 17 16 15 14 15 15 15 15 15 17 18 20 20 17 17 21 18 15 18 18 18 19 20 21 22 22 22 21 22 22 21 22 22 22 22 23 23 23 22 22 23 23 24 25 25 24 22 18 15 16 18 18 16 13 13 13 13 14 13 13 13 12 11 10 11 14 15 15 14 14 14 15 15 16 15 15 16 17 16
21 21 20 19 19 18 18 18 17 16 16 15 15 16 15 14 14 14 15 18 20 22 21 20 21 20 18 18 18 19 20 21 22 22 23 23 22 22 22 22 22 22 23 23 23 23 24 24 23 24 24 24 25 25 24 23 20 16 16 17 19 17 13 13 13 13 13 13 12 13 13 13 12 10 12 14 13 13 13 14 15 15 15 15 16 17 17 17
21 21 20 20 19 19 18 17 17 16 15 14 15 17 15 14 14 15 16 18 19 21 22 22 23 22 21 20 19 20 21 22 22 23 23 23 23 22 21 23 22 22 23 24 23 23 25 25 24 24 24 23 23 25 25 22 21 19 15 16 19 17 12 11 13 13 14 13 12 13 13 13 13 12 13 14 13 13 14 14 14 14 15 15 16 16 16 17
22 21 20 20 19 19 18 17 16 15 14 14 15 16 15 14 15 16 17 18 18 20 21 22 24 23 22 22 21 22 22 22 23 24 24 24 24 23 22 23 23 22 23 24 24 24 24 25 25 24 23 23 22 25 26 21 22 21 16 16 18 18 14 11 13 15 15 14 12 12 12 12 13 13 13 14 14 13 14 14 13 13 13 14 15 15 16 18
22 21 20 20 19 18 17 15 14 14 13 14 16 15 14 14 15 16 17 18 18 19 20 21 23 23 22 21 22 23 22 21 23 24 25 25 25 23 23 24 23 22 23 25 25 24 23 24 25 25 24 24 23 25 25 22 22 23 21 18 17 19 18 11 10 15 15 14 12 11 12 12 13 13 13 14 15 14 14 14 14 13 12 12 14 15 16 17
21 21 20 19 18 17 15 13 12 12 13 14 15 13 14 14 14 15 16 18 18 18 18 20 21 21 21 20 21 23 22 21 22 24 25 26 25 23 22 23 23 22 23 25 25 24 23 22 25 26 25 25 23 23 25 24 22 23 24 23 19 19 19 14 12 13 14 15 15 13 11 11 13 14 13 14 14 14 15 15 14 14 14 13 14 15 16 16
21 20 20 18 17 16 15 13 12 12 12 12 12 12 13 13 14 14 15 16 17 17 17 19 21 20 20 21 22 22 22 21 20 22 25 26 25 23 21 22 23 23 22 24 23 22 23 22 24 25 25 26 24 22 24 25 23 22 24 25 21 17 17 18 17 15 14 13 15 17 13 9 12 12 12 13 13 13 14 15 15 15 15 16 15 15 16 16
20 20 19 17 16 15 14 13 12 11 11 10 10 11 12 12 13 13 13 14 15 16 16 18 19 19 20 22 23 21 19 21 20 21 24 25 24 23 22 22 23 23 22 23 23 23 24 24 24 25 25 26 25 23 23 25 24 21 21 25 25 19 16 17 17 16 16 12 12 16 15 11 11 11 10 11 12 12 13 14 15 15 15 16 16 16 16 16
19 19 18 17 16 14 13 12 11 10 9 9 10 11 11 11 12 11 12 12 12 13 14 16 17 18 19 21 24 21 17 20 22 21 24 24 24 23 22 22 23 23 22 23 23 23 24 24 25 27 26 24 25 23 22 25 24 18 17 22 24 22 19 16 15 17 17 15 14 16 17 14 11 12 12 12 13 12 13 13 14 15 16 16 17 17 16 15
19 18 17 16 15 14 12 11 11 10 9 9 9 9 8 9 9 10 10 9 10 12 13 14 17 19 19 21 24 22 19 19 20 21 24 24 24 24 21 21 23 24 22 23 23 21 23 24 23 26 26 24 25 24 22 25 25 18 15 19 22 22 23 20 18 18 17 18 17 15 17 16 10 11 13 12 13 13 12 13 13 14 15 17 18 18 16 16
18 17 17 16 14 13 12 10 10 10 8 7 6 6 6 7 7 8 9 7 7 10 11 13 17 19 20 21 22 22 21 19 17 20 23 23 25 25 22 20 22 24 23 24 24 20 21 24 24 24 25 25 25 25 23 24 26 22 17 20 22 21 22 22 20 19 18 20 19 17 19 18 12 10 12 11 11 12 11 12 12 12 13 15 17 18 17 17
17 17 16 15 13 13 12 10 9 8 6 5 4 4 5 5 6 7 7 6 6 8 10 13 15 19 21 21 21 21 21 19 19 21 21 21 23 24 23 21 21 23 22 24 25 21 21 24 24 25 25 24 25 26 24 23 25 24 19 20 22 21 20 21 21 20 19 19 20 19 19 20 16 13 12 11 10 10 11 11 10 10 11 12 15 16 17 17
16 16 16 14 14 12 11 10 9 7 4 2 2 3 4 4 6 6 5 6 7 7 10 12 14 17 20 20 19 20 20 19 20 21 20 20 21 22 23 22 21 22 22 23 25 23 22 23 24 25 25 25 25 25 24 23 24 25 21 20 21 21 20 21 21 22 21 19 18 20 21 19 16 14 13 12 11 10 10 10 10 10 10 11 14 15 16 17
15 15 15 13 13 11 10 9 8 5 2 1 1 3 3 4 4 4 3 4 6 6 8 11 14 18 20 19 17 19 19 18 20 21 20 21 21 21 23 22 22 23 20 22 25 23 21 23 24 24 25 27 26 24 24 23 25 26 23 22 21 20 21 21 21 21 22 21 18 19 22 18 14 14 14 12 11 11 10 10 10 9 9 10 12 15 16 17
14 14 13 12 12 11 9 8 6 4 2 1 1 2 3 3 3 3 3 3 4 6 8 10 14 18 18 17 16 18 18 17 19 19 19 20 20 20 22 21 22 21 18 19 24 23 20 21 25 24 24 28 29 26 21 19 24 27 24 23 22 20 20 20 21 21 21 21 20 20 22 19 16 16 15 13 12 11 10 10 10 9 9 9 10 13 16 17
14 12 12 11 11 10 9 7 5 3 2 0 1 2 2 2 2 3 3 2 3 6 9 11 14 16 16 15 16 17 16 16 19 19 18 18 18 17 19 20 21 20 17 17 20 24 20 18 22 22 22 28 30 28 24 20 22 25 24 24 23 21 20 18 19 20 20 20 20 21 18 15 16 17 16 14 12 11 10 9 9 8 8 9 8 11 14 15
11 10 10 11 11 10 8 6 4 3 2 1 2 1 0 1 1 2 2 4 4 6 10 12 13 15 15 14 15 16 15 15 19 19 17 16 14 14 17 18 20 20 17 15 16 22 21 17 20 22 21 25 27 27 27 24 20 21 25 26 24 22 20 18 19 20 21 19 20 21 18 15 16 15 15 15 13 12 11 9 9 9 8 9 9 10 12 14
9 9 9 10 11 9 7 5 4 3 3 2 2 1 1 0 2 3 3 4 5 6 9 11 12 13 14 14 14 17 16 15 18 18 16 16 14 14 16 17 20 20 17 14 15 17 17 16 20 23 22 24 25 24 27 27 22 20 23 24 23 22 20 18 18 20 21 20 20 23 23 21 20 17 14 15 14 13 11 9 9 9 8 8 9 10 11 12
9 8 8 9 10 9 7 5 3 3 4 3 2 2 2 1 0 1 2 4 5 7 7 9 10 10 12 13 14 17 18 16 17 17 16 16 14 14 16 17 19 20 18 16 15 15 16 15 18 22 22 22 25 25 26 28 26 22 20 21 22 22 21 20 18 19 22 21 20 24 24 22 22 20 17 16 14 14 13 11 10 10 9 9 8 9 10 11
9 7 6 8 9 8 6 4 3 4 4 3 2 2 2 2 1 1 2 4 6 6 5 7 9 9 10 12 13 16 17 16 16 16 14 14 13 13 14 16 17 19 19 19 16 15 16 14 15 20 22 21 23 25 24 26 28 25 21 21 23 21 21 23 20 17 20 21 19 22 23 19 18 19 19 16 15 15 14 13 12 11 10 10 8 8 9 10
8 6 5 8 9 7 5 3 4 5 4 3 3 3 2 2 2 2 2 4 6 5 3 5 9 9 8 10 12 14 14 14 14 13 11 11 12 12 13 14 16 17 19 21 19 17 17 15 13 17 21 21 22 24 22 21 25 27 24 23 23 21 20 23 23 19 18 19 19 19 19 17 16 17 17 16 15 15 16 15 13 12 11 10 9 8 8 9
7 6 6 8 8 5 4 4 4 4 3 3 3 3 3 2 1 2 2 3 5 5 4 3 6 8 9 9 11 12 12 12 12 11 10 10 11 11 12 13 14 15 17 20 21 19 18 17 14 15 20 21 20 21 20 18 20 23 24 24 24 23 21 21 23 23 21 20 19 18 17 16 16 17 17 15 15 15 16 17 15 13 12 11 10 9 9 8
6 6 7 8 6 4 4 4 4 4 3 3 3 3 2 1 1 1 2 3 3 4 5 4 4 6 8 8 9 11 11 10 10 10 9 9 9 10 11 12 13 14 15 17 19 18 18 18 15 13 16 17 19 21 21 20 19 20 21 22 22 24 25 23 22 22 23 22 19 17 17 17 16 17 17 16 15 15 16 17 16 14 12 11 10 9 9 8
6 6 7 7 5 4 4 3 3 3 3 3 2 2 2 2 2 1 2 3 3 3 4 5 5 6 7 7 8 11 10 8 8 8 8 9 9 9 11 11 12 13 14 15 17 16 18 20 17 13 14 15 17 20 21 21 22 22 21 21 20 21 23 22 20 18 21 24 22 17 16 17 17 17 17 17 16 16 16 16 16 15 14 12 11 10 9 9
5 6 7 7 5 4 4 3 3 2 2 2 1 2 2 1 2 2 2 2 2 3 4 4 5 6 7 7 8 9 9 8 8 8 7 8 9 9 10 10 10 11 12 13 15 15 17 19 18 16 16 17 18 20 22 23 24 23 22 21 21 21 20 20 20 18 18 22 22 18 17 18 18 18 18 17 17 16 17 16 16 15 14 13 12 11 10 9
4 4 5 6 5 5 4 4 3 3 3 2 1 1 1 1 1 1 2 2 1 2 3 4 4 6 7 7 7 8 8 8 8 8 8 8 10 10 10 9 9 10 11 11 13 15 16 17 17 16 16 17 17 18 20 22 24 23 21 21 23 23 22 21 20 20 20 20 18 16 16 17 18 18 17 17 17 16 16 16 16 15 14 13 12 12 11 10
4 3 4 5 5 5 5 5 4 3 3 2 2 1 1 1 1 1 1 1 1 2 3 4 5 6 7 7 8 8 7 8 8 9 9 9 10 10 9 9 9 9 10 12 13 15 15 16 16 15 14 12 13 14 16 18 22 23 22 22 22 22 23 23 22 21 21 20 17 16 18 19 19 20 19 18 17 17 16 16 16 16 15 14 14 13 12 11
3 3 4 4 4 5 5 5 4 4 3 3 2 2 1 1 2 2 1 2 2 2 2 3 5 6 7 7 7 7 6 7 9 9 9 8 9 10 10 9 9 9 11 12 12 13 15 16 16 16 15 13 12 13 14 16 18 20 20 21 21 21 22 24 24 21 19 20 19 19 21 21 20 20 19 18 17 17 16 16 16 16 16 15 14 14 13 12
3 3 4 4 4 4 5 5 5 4 4 4 3 2 2 1 1 1 1 2 3 3 4 4 4 5 6 7 8 7 7 8 8 9 8 8 9 10 10 9 9 10 11 11 11 12 14 15 16 17 17 16 14 14 15 16 17 18 19 19 19 20 21 23 22 20 20 21 20 20 21 21 21 21 19 18 17 17 16 16 16 16 16 15 14 14 14 13
3 3 4 3 3 4 5 5 5 5 5 4 4 4 4 3 2 2 0 1 2 2 3 4 5 4 5 6 7 8 7 7 8 9 8 8 9 10 10 10 10 9 10 10 11 12 14 13 15 17 18 17 16 16 16 17 18 20 20 20 20 20 20 21 21 20 20 20 21 21 21 20 20 21 20 19 18 17 17 16 16 15 15 15 15 14 14 14
2 3 3 3 4 5 4 4 4 5 5 4 4 4 5 5 5 4 2 1 2 2 2 3 4 4 5 5 6 7 6 6 7 9 9 8 9 10 10 10 10 9 10 11 11 12 13 13 14 16 18 19 18 18 18 18 19 20 21 20 21 21 21 21 21 21 21 21 22 22 22 20 19 20 20 20 19 18 17 17 16 15 15 15 15 15 15 14
2 3 2 3 4 3 3 4 4 3 4 4 4 4 5 5 6 5 5 4 2 3 3 3 4 3 4 4 4 4 5 5 6 7 8 8 8 9 9 10 10 10 10 11 11 12 14 14 14 16 18 19 19 20 20 19 20 22 23 22 22 22 22 22 21 21 22 23 24 24 22 21 20 21 21 21 20 19 18 17 17 16 15 15 15 15 15 15
1 2 1 2 2 2 2 3 3 3 4 4 4 4 4 5 5 4 4 4 3 3 2 3 3 4 4 4 4 3 4 4 5 6 7 7 7 8 9 9 10 10 10 11 12 12 13 14 14 15 17 16 18 19 19 19 20 22 23 24 24 23 22 22 21 20 20 22 24 24 24 22 21 22 22 22 22 21 19 18 18 17 17 17 16 16 16 15
Wind_Direction
305 304 303 301 299 297 294 291 288 285 282 279 277 275 272 269 266 264 262 259 257 255 253 252 249 247 244 241 238 237 237 235 233 228 227 226 219 217 214 209 207 206 204 204 205 204 204 205 207 207 207 208 208 212 214 211 212 211 213 218 193 93 81 100 129 141 147 151 151 154 160 153 149 154 156 154 149 142 136 135 135 133 136 135 135 138 139 141
302 301 300 299 297 296 293 291 288 284 281 278 276 275 273 270 267 265 262 260 257 256 254 251 249 247 245 241 237 237 238 237 235 234 231 224 217 215 211 207 206 204 203 203 205 204 204 205 204 206 208 208 208 207 210 209 206 205 206 205 164 96 83 107 131 148 159 159 153 157 167 157 149 155 160 152 145 144 138 134 133 129 132 134 136 140 142 144
300 298 297 296 295 294 292 290 288 285 281 278 276 274 272 271 268 266 263 260 257 255 254 251 249 247 245 242 238 237 237 238 238 234 229 220 216 214 210 206 204 202 203 203 205 204 206 206 203 206 208 209 210 206 208 208 205 203 197 195 163 137 96 107 128 147 164 165 160 165 167 155 154 158 158 149 145 147 139 136 135 132 136 138 139 143 145 147
301 298 297 295 293 292 291 289 287 285 282 279 276 273 271 270 269 267 264 262 258 255 253 251 249 246 244 241 239 236 236 240 234 223 218 216 214 213 209 205 203 201 202 204 204 204 207 207 204 208 210 212 213 211 214 209 204 203 202 209 185 188 173 112 128 141 164 171 169 171 161 155 162 159 155 153 149 147 141 141 140 139 140 141 143 146 147 149
302 300 297 295 293 291 289 288 286 284 282 279 277 274 271 269 268 267 264 262 258 255 252 249 248 245 244 241 238 236 234 233 225 216 217 218 213 211 208 205 203 200 201 205 205 205 208 207 205 209 212 215 213 213 217 212 210 209 205 206 201 210 202 167 150 141 163 174 176 176 160 162 168 155 152 155 153 152 151 148 145 144 143 144 147 148 149 150
304 301 298 296 293 291 289 287 285 282 281 279 277 274 272 270 268 266 264 262 257 254 251 248 246 244 243 239 237 234 231 229 224 223 223 218 212 209 206 204 202 200 202 206 205 205 207 205 206 208 212 217 214 213 215 212 215 215 207 204 202 211 199 203 187 156 169 174 176 174 161 170 168 151 151 154 155 161 162 155 148 146 145 145 147 150 151 151
305 302 300 297 294 292 290 287 285 282 279 278 276 275 273 270 267 265 263 260 256 253 249 247 245 243 242 238 235 232 231 233 228 224 223 217 212 207 203 202 202 201 204 207 205 205 205 204 206 209 213 217 215 215 215 213 215 215 215 211 206 213 210 218 214 186 178 169 176 177 170 176 169 155 156 155 154 159 163 159 150 147 146 144 148 152 152 152
305 302 300 298 295 293 290 288 285 282 280 277 276 274 273 270 268 264 261 257 254 251 247 245 242 241 240 236 235 232 231 231 225 224 224 215 209 204 200 201 202 203 206 208 206 205 205 205 206 209 213 219 217 215 215 216 218 219 222 218 215 224 225 227 226 202 183 171 178 182 179 175 167 161 158 160 156 155 160 159 151 148 148 146 150 154 153 154
305 303 301 298 296 294 291 289 286 283 280 278 276 274 272 270 267 264 260 255 251 249 245 242 240 239 237 236 236 233 229 226 224 224 220 211 207 202 200 201 202 205 208 207 207 206 206 207 207 210 217 223 220 214 215 217 219 223 225 227 227 233 234 233 225 204 192 183 179 179 180 177 174 169 161 165 161 155 158 156 152 153 152 151 153 155 156 157
307 304 302 300 298 295 293 290 286 283 280 278 277 274 272 269 266 263 259 253 248 245 242 240 238 236 234 234 234 233 227 226 224 221 216 210 206 202 202 203 203 206 209 207 208 208 208 210 209 213 223 227 222 216 214 215 220 223 225 231 233 233 233 231 218 200 195 192 186 180 178 180 178 174 168 167 160 156 158 155 155 157 156 156 156 156 157 159
310 307 304 302 299 297 294 291 287 284 281 279 277 275 272 268 265 262 257 251 245 242 239 237 236 234 234 233 234 233 229 226 221 216 214 210 206 204 205 205 205 208 209 207 209 210 210 211 212 213 217 221 221 218 216 216 221 223 223 230 230 227 224 220 209 198 197 197 196 187 179 179 176 174 172 167 161 160 160 159 160 161 161 161 160 159 160 162
311 308 306 303 300 298 295 292 288 285 281 278 277 275 272 269 265 261 254 248 243 238 236 235 234 232 234 235 233 231 229 224 218 215 212 209 208 207 207 208 208 209 209 209 210 210 212 214 216 213 213 219 219 218 218 218 221 222 222 227 226 220 216 211 205 202 203 200 201 195 186 185 183 183 180 172 167 163 163 163 164 165 164 164 163 162 164 165
311 309 306 303 301 298 296 293 289 286 282 279 277 275 272 269 266 259 251 245 240 236 234 233 232 232 235 236 229 227 228 222 216 214 211 211 210 209 211 210 209 211 211 211 211 211 213 215 216 215 217 220 218 220 219 215 218 220 222 224 223 216 211 208 205 206 205 201 199 193 191 192 189 191 188 180 171 165 167 168 167 170 168 168 167 166 168 168
313 310 307 304 301 298 296 294 291 287 283 280 277 275 272 269 265 257 247 242 236 233 232 231 231 232 234 234 228 226 226 221 216 214 212 211 210 210 211 210 210 212 212 213 213 213 214 215 216 217 220 218 220 229 220 215 217 218 221 220 221 220 214 214 211 204 204 206 200 194 195 191 184 191 192 183 174 169 172 171 171 174 172 171 171 170 172 171
315 313 309 305 302 299 295 292 290 287 284 281 278 274 271 268 263 252 244 239 234 232 230 230 230 232 235 234 229 225 222 220 216 214 213 212 209 210 209 209 211 213 212 213 215 214 213 215 215 216 217 216 223 228 216 216 217 216 220 218 219 222 214 214 213 202 199 205 208 209 209 192 183 190 189 184 180 176 176 176 176 176 175 174 174 174 175 174
316 314 311 307 304 300 296 292 290 287 285 283 278 273 269 266 260 250 244 237 233 232 229 230 230 231 236 234 225 222 221 219 216 214 214 212 211 210 208 209 210 211 212 213 215 214 212 215 215 215 217 215 218 220 213 215 215 213 216 218 217 217 212 212 211 204 201 204 208 213 213 200 198 199 194 192 189 183 180 180 180 179 178 178 177 178 178 177
316 314 312 308 304 301 297 293 289 286 284 282 278 273 268 264 257 249 243 236 235 233 231 235 232 230 235 233 225 222 220 217 214 213 214 213 212 209 207 209 210 210 211 213 215 213 211 213 213 215 216 214 214 215 214 214 213 210 212 217 218 217 216 213 208 202 199 205 206 204 206 204 204 203 201 199 193 188 185 180 182 184 182 182 181 182 182 180
318 316 313 310 306 302 298 294 288 285 283 279 274 269 266 262 257 250 243 238 238 235 235 235 230 231 233 228 225 221 217 215 213 213 213 214 213 208 208 210 209 209 210 213 214 211 210 211 213 214 214 213 213 212 213 213 212 209 209 214 218 218 217 214 213 206 199 204 207 206 208 201 195 195 199 202 195 192 188 181 183 186 185 187 186 186 186 184
320 317 315 311 308 304 300 296 290 285 282 277 270 266 264 260 256 251 244 239 234 232 236 230 223 231 233 221 219 217 214 214 213 212 212 213 213 209 209 210 208 208 210 212 212 210 209 210 212 215 213 212 212 211 213 213 214 216 213 211 216 220 217 211 211 208 204 206 207 207 202 199 199 193 195 204 203 198 192 186 184 185 188 191 191 191 189 187
322 319 316 313 309 305 301 296 290 285 280 273 266 263 262 259 255 251 242 237 235 236 240 231 222 229 230 216 213 213 213 214 214 213 212 212 211 209 209 209 208 209 212 212 210 209 209 211 213 214 214 212 212 213 214 217 223 228 221 209 212 222 218 206 203 208 212 213 211 204 192 195 203 197 196 201 204 202 198 194 189 186 187 190 194 194 190 190
324 321 318 315 311 306 301 296 290 284 277 269 264 260 262 264 258 252 246 240 238 237 238 233 227 230 229 220 216 216 215 216 215 214 212 211 209 208 208 208 208 211 213 211 209 209 211 215 215 214 215 213 213 214 215 223 227 228 225 210 210 221 216 201 200 207 212 214 217 207 193 198 204 200 201 200 201 203 201 201 197 190 188 190 195 194 191 192
326 324 321 317 313 309 303 296 290 283 275 267 263 260 263 266 257 254 254 248 240 235 235 233 229 231 229 225 222 219 217 215 215 212 210 209 209 209 208 209 211 211 212 211 210 210 213 217 216 213 215 214 213 213 216 223 220 217 220 210 206 212 205 198 206 210 211 212 218 216 207 207 207 201 199 199 201 204 204 205 202 197 195 195 198 195 193 195
328 326 322 319 317 314 306 298 290 282 273 264 261 261 263 263 257 254 252 249 242 234 234 232 228 228 226 225 223 219 217 216 214 210 208 209 209 211 211 210 212 211 210 211 211 211 214 216 215 213 213 214 213 212 214 217 214 214 215 206 204 208 208 212 215 209 211 217 219 219 217 212 204 201 201 202 203 203 204 204 201 202 201 200 201 198 196 197
330 327 324 322 319 317 311 302 292 282 273 265 264 265 265 260 258 257 249 247 244 234 232 230 226 225 224 224 220 215 217 217 213 209 207 209 210 212 213 210 212 213 211 212 212 214 217 214 213 213 212 214 213 211 212 212 212 213 214 211 208 212 217 218 209 202 205 217 216 209 215 211 200 202 204 203 205 203 200 200 199 200 202 203 204 202 200 199
331 329 327 325 322 321 316 305 295 286 275 268 267 267 265 260 258 258 250 247 241 231 229 227 224 223 222 220 215 213 217 217 214 210 207 209 210 211 213 212 212 213 211 211 213 215 217 213 212 212 210 211 212 210 211 211 213 215 216 218 217 219 219 209 205 208 208 215 213 207 216 213 203 206 201 197 202 202 199 201 200 197 200 204 206 206 204 202
333 332 331 329 326 323 316 309 302 291 278 270 270 267 263 260 260 256 250 247 237 227 226 223 220 221 220 216 211 213 218 216 212 209 206 209 212 211 213 212 212 215 212 211 215 217 215 212 211 210 206 208 211 211 211 211 214 217 216 217 218 224 223 210 207 214 215 215 207 207 217 213 202 200 190 190 199 201 201 202 200 198 201 204 206 206 207 207
335 336 335 333 331 327 320 315 307 294 282 278 276 271 266 263 261 254 247 243 232 225 223 218 219 219 217 212 207 210 216 210 207 208 206 208 211 212 215 212 210 215 214 210 214 216 212 209 208 207 205 208 211 212 210 209 213 219 216 212 214 220 221 210 206 212 216 213 197 202 215 215 202 190 186 195 199 201 205 202 199 202 203 204 208 207 207 210
337 338 338 337 335 331 326 320 309 300 296 292 281 272 268 261 257 247 241 236 224 224 223 217 218 217 213 210 206 210 212 205 208 210 206 207 209 209 213 213 210 213 213 209 211 212 211 209 207 208 209 210 212 212 210 207 210 215 213 210 210 213 216 211 211 214 217 218 209 204 210 212 204 196 202 208 205 206 210 206 203 205 205 206 210 208 205 207
339 340 341 340 338 336 333 325 315 314 309 296 281 271 264 253 247 236 231 233 227 226 224 217 215 213 210 207 206 211 212 210 213 208 203 208 211 209 213 216 213 213 211 211 212 209 210 212 210 210 211 212 211 211 210 207 207 208 209 213 213 214 216 216 218 218 218 222 218 209 206 206 203 202 204 207 208 209 209 208 208 208 207 208 209 209 204 202
341 343 344 343 343 344 340 331 323 322 315 296 280 266 250 234 228 221 218 225 222 216 217 214 210 207 205 202 204 208 208 210 210 202 202 209 209 210 216 217 214 214 210 211 216 214 210 212 212 211 212 213 210 209 210 207 209 213 212 214 216 216 216 217 220 220 220 220 218 215 212 206 205 207 202 201 204 206 207 206 208 211 211 209 208 209 206 202
343 344 347 346 347 348 343 342 342 333 318 299 275 245 227 213 217 223 218 219 218 208 206 203 200 199 199 199 202 204 205 206 204 200 202 206 205 207 211 210 211 213 209 209 214 215 211 209 210 211 211 211 210 209 209 206 210 216 215 211 212 212 213 214 216 218 220 218 211 212 216 211 211 211 201 200 204 206 209 208 209 215 217 215 213 209 206 204
344 346 349 348 347 349 345 347 348 337 322 300 250 205 200 202 212 226 223 216 217 207 199 196 193 194 196 197 199 200 203 203 200 200 201 201 203 205 207 207 206 208 209 208 208 210 213 213 211 211 209 210 210 207 207 207 209 213 212 209 209 207 207 210 211 213 218 217 208 209 218 218 212 206 200 201 205 207 211 211 213 220 221 221 216 210 208 207
345 347 350 350 350 352 351 349 349 347 344 290 215 191 212 220 210 218 219 206 206 202 201 200 193 191 193 195 195 196 199 200 198 201 200 200 202 202 204 209 208 209 211 208 206 208 212 212 209 208 208 209 209 203 203 208 209 210 210 208 208 206 206 208 209 212 215 216 213 211 214 212 202 200 201 200 201 206 209 210 215 220 221 222 216 209 207 206
346 349 353 356 356 356 356 357 360 6 11 212 189 200 229 228 201 212 222 204 199 201 201 195 188 190 194 196 194 193 196 198 197 199 199 200 204 202 203 208 208 209 211 208 207 207 209 209 207 208 208 207 206 205 206 210 209 210 211 211 211 210 208 209 211 212 213 213 213 211 210 209 205 203 203 200 201 204 206 208 213 217 217 216 212 207 204 203
348 353 355 358 360 360 1 7 14 19 26 188 230 249 239 213 192 215 224 210 205 198 192 188 186 189 191 191 193 194 197 199 196 197 198 199 203 202 201 203 202 205 213 213 207 205 209 208 201 204 207 204 206 211 214 216 210 208 210 212 213 211 210 214 215 213 212 212 212 209 206 206 202 198 199 202 202 201 201 204 207 211 213 209 205 207 207 206
349 355 356 0 6 7 7 14 23 28 26 335 284 288 300 183 236 259 237 221 222 201 188 186 188 189 187 188 194 196 199 200 196 197 197 195 197 199 200 203 203 205 212 215 208 205 208 204 197 201 206 205 208 212 212 213 212 208 208 212 213 212 213 218 217 212 212 214 210 204 202 199 196 197 200 202 200 198 199 199 201 207 209 206 204 206 206 207
349 353 356 4 11 11 10 15 22 30 16 346 335 352 1 268 261 263 228 218 215 196 189 187 189 192 192 194 197 195 196 197 195 196 197 196 199 205 207 207 206 207 210 212 210 207 205 203 201 205 207 207 209 212 211 213 214 210 208 211 212 212 218 223 218 212 211 213 209 204 204 205 207 208 205 202 202 201 201 199 199 204 205 204 204 205 205 206
350 352 357 6 10 9 12 16 17 14 357 348 14 15 354 18 293 253 209 204 192 184 193 193 189 195 199 200 198 194 193 194 194 195 198 201 205 209 210 207 205 209 212 211 209 206 204 202 200 204 207 206 208 211 211 212 215 216 215 213 211 211 214 216 217 214 209 209 210 205 204 208 212 211 205 204 205 203 204 205 202 203 206 205 203 205 208 210
345 344 352 3 6 8 15 19 5 354 348 356 47 52 32 62 78 116 168 188 182 181 199 194 191 201 205 200 195 190 191 193 194 196 199 203 205 206 208 207 207 210 212 212 210 207 208 208 203 204 205 203 204 207 208 209 212 216 218 214 211 213 213 210 212 215 209 209 210 205 203 205 207 206 204 205 209 208 207 207 206 206 206 208 210 211 212 214
344 344 353 357 357 4 12 4 349 349 359 21 40 48 49 60 79 103 137 180 183 186 203 193 195 201 195 189 187 186 190 193 193 197 198 197 198 199 203 207 209 212 212 213 213 210 212 215 208 200 201 202 203 204 207 208 208 211 213 210 209 212 213 210 212 214 212 212 211 208 205 202 200 203 203 204 210 212 210 208 208 208 206 208 214 216 217 218
351 354 1 354 352 3 360 350 353 359 20 44 43 50 50 32 64 108 128 166 182 193 205 199 195 190 182 182 183 182 188 188 187 192 194 193 197 199 201 206 210 211 210 210 211 211 213 215 208 199 203 207 203 201 205 207 205 207 210 210 211 212 212 212 213 214 216 217 216 214 207 201 203 208 207 207 210 212 210 209 208 206 206 207 210 212 217 220
350 352 359 354 354 2 349 356 15 14 27 47 46 53 51 10 38 119 144 161 178 193 198 194 178 174 178 183 182 182 185 184 185 192 190 189 196 197 199 205 207 207 208 207 208 210 211 213 212 205 204 204 200 202 209 210 208 209 210 211 214 213 212 215 215 216 218 220 222 219 206 202 208 211 208 210 212 211 209 209 207 205 205 205 206 210 212 217
0 6 10 8 12 10 353 8 35 22 28 44 38 45 50 29 46 92 150 165 174 178 183 186 181 179 180 179 178 179 181 183 187 190 185 184 191 194 196 203 206 207 210 208 206 208 209 210 213 209 201 200 203 208 212 213 213 214 213 214 216 213 213 216 218 219 220 219 220 215 205 205 210 211 209 208 209 209 209 208 206 205 205 205 205 208 210 211
11 15 19 23 24 11 2 21 41 31 38 53 57 67 72 47 42 64 100 128 163 169 166 173 181 184 181 178 176 176 182 191 191 190 189 186 189 192 194 200 207 207 206 206 207 208 207 207 210 211 207 207 209 209 209 211 213 215 214 214 217 218 219 220 219 219 219 219 220 219 212 209 209 209 208 207 206 207 207 206 205 205 205 206 205 207 210 210
2 8 22 28 26 19 22 31 35 44 58 62 70 85 104 122 84 57 89 102 137 174 175 178 184 184 183 187 187 184 191 198 192 189 189 184 186 191 193 199 206 204 202 210 214 210 207 206 208 210 211 211 211 209 209 209 209 212 215 215 216 220 222 221 220 219 218 220 226 222 208 201 203 204 203 203 204 204 205 205 204 204 205 206 207 208 210 212
359 6 21 28 31 36 42 39 31 42 57 54 53 47 32 121 153 202 221 154 145 159 173 187 197 194 189 191 192 192 200 199 192 191 188 185 190 195 199 202 202 204 209 217 218 212 210 208 206 208 211 212 211 211 211 210 207 208 212 214 215 219 220 220 222 223 221 222 223 211 197 195 199 200 199 200 201 202 204 205 205 205 206 206 207 209 210 212
9 11 15 24 33 41 46 39 29 33 39 35 38 34 25 93 147 181 222 223 196 189 187 192 205 203 194 192 189 188 194 192 190 192 190 191 194 195 201 205 201 208 218 219 216 214 213 211 208 209 212 213 214 210 209 210 206 205 209 212 214 217 218 220 222 223 224 224 218 205 200 202 200 198 199 200 201 203 205 206 207 208 209 209 208 209 210 211
25 27 29 26 24 31 37 35 35 46 53 51 51 47 53 80 103 130 164 197 203 217 218 198 197 200 195 201 202 193 191 192 192 195 197 199 200 199 203 208 208 214 220 219 217 217 218 215 211 213 214 214 216 215 213 213 211 212 215 215 216 217 217 218 221 223 226 223 213 203 203 206 203 200 200 201 203 204 204 206 208 208 208 210 210 210 211 212
40 49 49 39 30 39 48 46 48 59 61 58 61 55 55 72 78 67 65 199 187 209 222 195 190 200 200 209 211 199 201 207 200 199 204 206 208 211 213 213 214 219 223 223 221 220 222 220 216 219 219 217 217 218 217 217 218 219 220 219 219 219 217 218 220 220 220 214 206 201 202 204 204 203 203 205 206 206 205 207 210 209 209 210 211 212 213 213
35 45 50 57 58 57 60 58 57 67 68 61 62 59 54 63 73 69 42 14 167 165 180 170 168 184 190 195 199 195 205 218 204 199 209 214 217 222 225 223 224 228 229 228 226 223 225 225 222 224 224 221 221 222 221 221 223 223 221 220 221 220 219 220 220 218 216 212 207 204 202 203 205 205 206 209 210 210 209 209 210 213 213 212 212 213 214 215
35 48 42 47 61 58 56 63 61 67 72 64 61 66 65 67 73 71 58 53 96 142 153 148 143 149 155 158 167 179 197 211 203 202 212 221 224 226 229 232 234 237 234 230 229 226 227 228 223 224 227 224 221 223 223 224 226 227 225 222 220 220 220 220 219 218 217 213 209 208 207 207 209 209 211 213 212 211 211 212 213 216 217 218 217 215 216 218
38 74 48 25 59 65 61 72 65 53 61 62 65 72 74 78 76 63 58 65 81 115 151 165 167 167 156 146 150 171 189 196 201 207 214 222 226 226 229 232 235 239 237 233 232 230 230 230 224 224 229 224 217 220 225 225 227 230 227 221 218 219 220 219 216 218 219 215 214 216 215 212 211 213 215 216 214 213 214 217 219 219 219 220 221 221 221 221